Regional Weather Roundup
Issued by NWS Grand Forks, ND

Home | Current Version | Previous Version | Text Only | Print | Product List | Glossary Off
Versions: 1 2 3 4 5 6 7 8 9 10 11 12 13 14 15 16 17 18 19 20 21 22 23 24 25 26 27 28 29 30 31 32 33 34 35 36 37 38 39 40 41 42 43 44 45 46 47 48 49 50

000
ASUS43 KFGF 010031
RWRFGF
PRAIRIE TO PINES  WEATHER ROUNDUP
NATIONAL WEATHER SERVICE EASTERN NORTH DAKOTA/GRAND FORKS ND
700 PM CDT TUE JUN 30 2015

 **SATELLITE DATA USED TO AUGMENT SKY COVER AT AUTOMATED STATIONS**
 *****  WEATHER ACROSS EASTERN NORTH DAKOTA  *****

CITY           SKY/WX    TMP DP  RH WIND       PRES   REMARKS
GRAND FORKS    CLOUDY    74  58  57 S5        29.91S
6HR MIN TEMP:  73; 6HR MAX TEMP:  76;

GRAND FRKS AFB PTSUNNY   72  60  64 SW6       29.92F
GRAND FRKS NWS   N/A     72 N/A N/A E5          N/A
DEVILS LAKE    CLOUDY    68  61  77 SE8       29.90F
6HR MIN TEMP:  66; 6HR MAX TEMP:  72;

FARGO          CLOUDY    73  63  70 NE3       29.90F
WAHPETON ARPT  CLOUDY    72  59  64 CALM      29.92F
$$

 ***** WEATHER ACROSS CENTRAL AND WESTERN NORTH DAKOTA  *****

CITY           SKY/WX    TMP DP  RH WIND       PRES   REMARKS
BISMARCK       PTSUNNY   73  65  75 E10       29.89F
6HR MIN TEMP:  70; 6HR MAX TEMP:  77; 6HR PCP: TRACE;

MINOT          CLOUDY    68  64  87 E7        29.87F FOG
6HR MIN TEMP:  67; 6HR MAX TEMP:  72;

JAMESTOWN      CLOUDY    71  61  70 E8        29.90F
6HR MIN TEMP:  70; 6HR MAX TEMP:  73; 6HR PCP: TRACE;

MINOT AFB      LGT RAIN  68  68 100 E9        29.87F
GARRISON         N/A     68  65  90 E12       29.90R
WILLISTON      MOSUNNY   70  57  63 NE18G28   29.89R HAZE
6HR MIN TEMP:  73; 6HR MAX TEMP:  81;

DICKINSON      MOSUNNY   74  61  63 E15       29.84F
6HR MIN TEMP:  72; 6HR MAX TEMP:  78;

HETTINGER      MOSUNNY   78  65  63 SE14      29.86F
6HR MIN TEMP:  70; 6HR MAX TEMP:  79; 6HR PCP: TRACE;

$$

 *****  OTHER AIRPORT OBSERVATIONS IN OUR AREA  *****

CITY           SKY/WX    TMP DP  RH WIND       PRES   REMARKS
WALHALLA       FAIR      72  63  73 MISG      29.91S
GRAFTON AIRPOR FAIR      73  57  56 S5        29.91F
VALLEY CITY AR FAIR      68  61  77 SE7       29.91F
CANDO          FAIR      68  63  83 SE7       29.92R
CAVALIER APRT  FAIR      73  59  60 S6        29.90F
GWINNER        NOT AVBL
SHEYENNE NWR     N/A     72  61  69 SE5       29.95S
ROLLA          FAIR      66  63  88 SE8       29.93S
 ***** THE ABOVE OBSERVATIONS ARE NON NWS ARE NOT QUALITY
       CONTROLLED AND MAY MIS-REPORT RAIN FOR SNOW...
$$

  *****  WEATHER ACROSS NORTHERN MINNESOTA  *****

CITY           SKY/WX    TMP DP  RH WIND       PRES   REMARKS
FLAG ISLAND    CLOUDY    68  52  56 S3        29.93S
WARROAD        CLOUDY    70  55  60 E5        29.94S
ROSEAU         PTSUNNY   70  59  68 E3        29.93S
HALLOCK        PTSUNNY   73  59  60 SW6       29.90F
THF RVR FALLS  MOSUNNY   72  55  56 CALM      29.93S
6HR MIN TEMP:  70; 6HR MAX TEMP:  75;

BAUDETTE       CLOUDY    69  55  60 N5        29.94R
6HR MIN TEMP:  69; 6HR MAX TEMP:  73;

WASKISH        PTSUNNY   72  57  60 CALM      29.93F
CROOKSTON      PTSUNNY   73  57  56 CALM      29.92F
$$
  *****  WEATHER ACROSS CENTRAL AND WEST MINNESOTA  *****

CITY           SKY/WX    TMP DP  RH WIND       PRES   REMARKS
FOSSTON        MOSUNNY   72  57  60 CALM      29.94S
BEMIDJI        MOSUNNY   72  51  47 E5        29.93F
PARK RAPIDS    PTSUNNY   75  53  46 E3        29.93S
6HR MIN TEMP:  73; 6HR MAX TEMP:  77;

ELBOW LAKE     FAIR      70  61  73 CALM      29.92S
6HR MIN TEMP:  70; 6HR MAX TEMP:  74;

WADENA           N/A     72  57  60 S3        29.93S
DETROIT LAKES  PTSUNNY   72  55  56 CALM      29.94S
MOORHEAD       CLOUDY    72  63  73 CALM      29.91F
FERGUS FALLS   CLOUDY    70  61  73 CALM      29.91F
MORRIS MN      PTSUNNY   72  61  68 CALM      29.92R
STAPLES        PTSUNNY   72  54  53 E3        29.93S
$$
  *****  WEATHER ELSEWHERE ACROSS MINNESOTA  *****

CITY           SKY/WX    TMP DP  RH WIND       PRES   REMARKS
DULUTH         PTSUNNY   60  45  57 SE10      29.96S
6HR MIN TEMP:  60; 6HR MAX TEMP:  63;

INTRNTL FALLS  MOSUNNY   68  51  54 NE5       29.95S
6HR MIN TEMP:  67; 6HR MAX TEMP:  71;

ELY            SUNNY     68  45  42 NE3       29.95S
CLOQUET        PTSUNNY   61  48  63 SE5       29.96R
WHEATON        CLOUDY    70  61  73 E3        29.93S
BRAINERD       MOSUNNY   72  55  55 CALM      29.92F
6HR MIN TEMP:  71; 6HR MAX TEMP:  76;

HIBBING        MOSUNNY   71  50  47 N6        29.94R
6HR MIN TEMP:  67; 6HR MAX TEMP:  73;

ALEXANDRIA     PTSUNNY   72  57  59 SE6       29.94R
6HR MIN TEMP:  72; 6HR MAX TEMP:  75;

SAINT CLOUD    PTSUNNY   72  57  59 SE5       29.91S
6HR MIN TEMP:  72; 6HR MAX TEMP:  77;

MINNEAPOLIS    PTSUNNY   73  55  53 NE9       29.91R
6HR MIN TEMP:  73; 6HR MAX TEMP:  77;

$$

  *****  WEATHER ACROSS SOUTH DAKOTA  *****

CITY           SKY/WX    TMP DP  RH WIND       PRES   REMARKS
SIOUX FALLS    CLOUDY    72  65  78 W3        29.90R
6HR MIN TEMP:  72; 6HR MAX TEMP:  76; 6HR PCP:  0.03;

BROOKINGS      CLOUDY    72  61  68 E9        29.92S
WATERTOWN      CLOUDY    71  61  70 E7        29.90F
6HR MIN TEMP:  71; 6HR MAX TEMP:  74;

HURON          LGT RAIN  71  69  93 CALM      29.88S FOG
6HR MIN TEMP:  70; 6HR MAX TEMP:  73; 6HR PCP:  0.03;

SISSETON         N/A     73  58  59 E8        29.90S
ABERDEEN       PTSUNNY   77  63  61 CALM      29.89R
6HR MIN TEMP:  72; 6HR MAX TEMP:  78; 6HR PCP:  0.01;

MITCHELL       LGT RAIN  71  70  96 CALM      29.90R FOG
PIERRE         CLOUDY    74  67  78 SE15      29.83F
6HR MIN TEMP:  74; 6HR MAX TEMP:  78; 6HR PCP: TRACE;

MOBRIDGE       PTSUNNY   73  66  78 E12       29.85S
RAPID CITY     SUNNY     83  67  58 NE8       29.89F
6HR MIN TEMP:  79; 6HR MAX TEMP:  89; 6HR PCP: TRACE;

$$

  *****  SOME WEATHER IN NEARBY STATES *****

CITY           SKY/WX    TMP DP  RH WIND       PRES   REMARKS
GLASGOW MT     NOT AVBL
GREAT FALLS MT SUNNY     91  40  16 NW13G23   29.95F
6HR MIN TEMP:  85; 6HR MAX TEMP:  93;

CHEYENNE WY    PTSUNNY   81  51  35 SW13      30.12F
6HR MIN TEMP:  76; 6HR MAX TEMP:  90; 6HR PCP: TRACE;

SCOTTSBLUFF NE MOSUNNY   95  53  24 W6        29.90F HX  92
6HR MIN TEMP:  88; 6HR MAX TEMP:  99;

OMAHA NE       CLOUDY    75  65  70 E3        29.88S
6HR MIN TEMP:  74; 6HR MAX TEMP:  78; 6HR PCP: TRACE;

DES MOINES IA  CLOUDY    78  65  63 W5        29.88F
6HR MIN TEMP:  78; 6HR MAX TEMP:  82;

DAVENPORT IA   SUNNY     76  64  66 N6        29.86S
6HR MIN TEMP:  76; 6HR MAX TEMP:  81;

CHICAGO IL     MOSUNNY   66  58  75 NE10      29.85R
6HR MIN TEMP:  66; 6HR MAX TEMP:  77;

EAU CLAIRE WI  PTSUNNY   70  50  49 NE9       29.91S
6HR MIN TEMP:  70; 6HR MAX TEMP:  75;

LA CROSSE WI   MOSUNNY   75  53  46 N7        29.88S
6HR MIN TEMP:  69; 6HR MAX TEMP:  77;

$$

  *****  SOME NATIONAL WEATHER *****

CITY           SKY/WX    TMP DP  RH WIND       PRES   REMARKS
LA GUARDIA NY  MOCLDY    75  64  69 S14       29.88S
6HR MIN TEMP:  75; 6HR MAX TEMP:  82; 6HR PCP: TRACE;

RALEIGH NC     LGT RAIN  75  70  83 W9G26     29.91R
6HR MIN TEMP:  79; 6HR MAX TEMP:  92; 6HR PCP: TRACE;

ATLANTA GA     PTCLDY    82  64  54 SW7       29.96R
6HR MIN TEMP:  82; 6HR MAX TEMP:  86;

NEW ORLEANS LA CLOUDY    79  69  71 W10       30.02F
6HR MIN TEMP:  79; 6HR MAX TEMP:  93;

OKLAHOMA CITY  PTSUNNY   92  65  40 S10       29.92F HX  94
6HR MIN TEMP:  88; 6HR MAX TEMP:  94;

ALBUQUERQUE NM MOSUNNY   93  46  19 VRB3      30.06F
6HR MIN TEMP:  83; 6HR MAX TEMP:  94;

SALT LAKE CITY PTSUNNY  100  48  17 N8        29.95F HX  96
6HR MIN TEMP:  94; 6HR MAX TEMP: 101;

LOS ANGELES CA LGT RAIN  72  66  83 NW16G23   29.89F
6HR MIN TEMP:  73; 6HR MAX TEMP:  78; 6HR PCP: TRACE;

BOISE ID       SUNNY    102  42  13 NW14      29.90F HX  97



USA.gov is the U.S. government's official web portal to all federal, state and local government web resources and services.